This demonstration page uses our WeatherBlox Daily Observations layout. Learn more.

41.55636, -103.73856

Hourly Observations for November 5, 2015

Temp ( °F °C ) Dew Point ( °F °C ) Humidity (%) Winds ( mph kmh ) Pressure ( in mb ) Visibility ( mi km ) Precip ( " mm )
12:19 am 00:19 Cloudy with Light Rain 42 5.6 40 4.4 92 92 ESE 5 7 29.77 1008 8 12.87472 0.03 0.762
12:53 am 00:53 Cloudy with Light Rain 42 5.6 40 4.4 92 92 S 5 7 29.75 1008 6 9.65604 0.07 1.778
1:37 am 01:37 Cloudy with Light Rain 41 5 39 3.9 93 93 NNW 6 9 29.83 1010 8 12.87472 0.03 0.762
1:53 am 01:53 Cloudy with Light Rain 39 3.9 36 2.2 89 89 N 13 20 29.77 1008 8 12.87472 0.05 1.27
2:53 am 02:53 Cloudy with Light Rain 37 2.8 35 1.7 93 93 NNW 10 17 29.79 1009 10 16.0934 0.03 0.762
3:28 am 03:28 Cloudy with Light Rain 37 3 34 1 87 87 NNW 9 15 29.88 1012 10 16.0934 0 0
3:53 am 03:53 Cloudy with Light Rain 38 3.3 34 1.1 86 86 NW 12 19 29.82 1010 10 16.0934 0 0.0254
4:53 am 04:53 Cloudy 38 3.3 35 1.7 89 89 NW 9 15 29.84 1010 10 16.0934 0 0.0254
5:53 am 05:53 Partly Cloudy 38 3.3 34 1.1 86 86 NW 12 19 29.86 1011 10 16.0934 0 0
6:53 am 06:53 Sunny 37 2.8 32 0 82 82 NW 12 19 29.88 1012 10 16.0934 0 0
7:53 am 07:53 Cloudy 37 2.8 33 0.6 86 86 NW 8 13 29.92 1013 10 16.0934 0 0
8:23 am 08:23 Mostly Cloudy 38 3.3 31 -0.6 76 76 NW 17 28 30 1016 10 16.0934 0 0
8:53 am 08:53 Mostly Cloudy 39 3.9 31 -0.6 73 73 NNW 15 24 29.93 1014 10 16.0934 0 0
9:53 am 09:53 Sunny 43 6.1 29 -1.7 58 58 NW 17 28 29.91 1013 10 16.0934 0 0
10:53 am 10:53 Mostly Sunny 46 7.8 29 -1.7 51 51 NW 18 30 29.9 1012 10 16.0934 0 0
11:53 am 11:53 Sunny 49 9.4 30 -1.1 48 48 WNW 16 26 29.87 1012 10 16.0934 0 0
12:53 pm 12:53 Mostly Cloudy 48 8.9 28 -2.2 46 46 W 14 22 29.87 1012 10 16.0934 0 0
1:53 pm 13:53 Cloudy 50 10 28 -2.2 43 43 NW 13 20 29.88 1012 10 16.0934 0 0
2:53 pm 14:53 Mostly Cloudy 48 8.9 28 -2.2 46 46 WNW 10 17 29.91 1013 10 16.0934 0 0
3:53 pm 15:53 Mostly Cloudy 46 7.8 29 -1.7 51 51 NW 10 17 29.93 1014 10 16.0934 0 0
4:53 pm 16:53 Cloudy 43 6.1 28 -2.2 56 56 NW 9 15 29.97 1015 10 16.0934 0 0.0254
5:53 pm 17:53 Mostly Cloudy 37 2.8 30 -1.1 76 76 NNW 5 7 30.01 1016 10 16.0934 0 0
6:53 pm 18:53 Cloudy 39 3.9 30 -1.1 70 70 W 3 6 30.02 1017 10 16.0934 0 0
7:53 pm 19:53 Mostly Cloudy 37 2.8 31 -0.6 79 79 NNE 3 6 30.03 1017 10 16.0934 0 0
8:53 pm 20:53 Cloudy 36 2.2 31 -0.6 82 82 N 5 7 30.06 1018 10 16.0934 0 0
9:53 pm 21:53 Partly Cloudy 32 0 30 -1.1 92 92 Calm 30.07 1018 10 16.0934 0 0
10:53 pm 22:53 Clear 35 1.7 30 -1.1 82 82 Calm 30.06 1018 10 16.0934 0 0
11:53 pm 23:53 Partly Cloudy 34 1.1 29 -1.7 82 82 Calm 30.07 1018 10 16.0934 0 0

Powered by AerisWeather